Location: Gerlach
(40.6516°N, 119.3568°W)
Time: 04:06:48
(UTC-07:00)

Vanguard 2 Rocket - Pass Details

Date: 02 March 2024
Orbit: 555 x 3307 km, 32.9° (Epoch: 23 April)

Event Time Altitude Azimuth Distance (km) Brightness Sun altitude
Rises 18:50:45 0° 273° (W) 5,391 13.0 -12.2°
Reaches altitude 10° 18:54:37 10° 262° (W) 4,773 12.0 -12.9°
Maximum altitude 19:05:50 28° 211° (SSW) 4,339 10.6 -15.0°
Drops below altitude 10° 19:20:29 10° 163° (SSE) 6,222 10.9 -17.8°
Sets 19:26:40 0° 153° (SSE) 7,276 11.2 -19.0°
